Overview Statistics Trail Chart Weather Telemetry Raw packets
 

This is the latest recevied weather packets stored in our database for station/object W0AKY-13. If no packets are shown the sender has not sent any weather packets the latest 10 day(s).

<< 59 60 61 62 63 64 65 >>
Time Temp. Humidity Pressure Rain* Wind** Luminosity Snow
1788142694 27.78° C 90% 1010.7 hPa 0 mm - 0 W/m² -
1788142393 27.78° C 90% 1010.6 hPa 0 mm - 0 W/m² -
1788142090 27.78° C 89% 1010.8 hPa 0 mm - 0 W/m² -
1788141789 28.33° C 88% 1010.5 hPa 0 mm - 0 W/m² -
1788141484 27.78° C 88% 1010.3 hPa 0 mm - 0 W/m² -
1788141180 28.33° C 88% 1010.4 hPa 0 mm - 0 W/m² -
1788140880 28.33° C 87% 1010.5 hPa 0 mm - 0 W/m² -
1788140574 28.33° C 87% 1010.5 hPa 0 mm - 0 W/m² -
1788140271 28.33° C 88% 1010.5 hPa 0 mm - 0 W/m² -
1788139970 28.33° C 89% 1010.3 hPa 0 mm - 0 W/m² -
1788139665 28.89° C 89% 1010.1 hPa 0 mm - 0 W/m² -
1788139361 28.89° C 89% 1010.2 hPa 0 mm - 0 W/m² -
1788139060 28.89° C 89% 1010.4 hPa 0 mm - 0 W/m² -
1788138756 28.89° C 89% 1010.3 hPa 0 mm - 0 W/m² -
1788138451 28.89° C 88% 1010.3 hPa 0 mm - 0 W/m² -
1788138151 29.44° C 87% 1010.2 hPa 0 mm - 1 W/m² -
1788137847 29.44° C 87% 1010.1 hPa 0 mm - 2 W/m² -
1788137542 30° C 85% 1010.1 hPa 0 mm - 3 W/m² -
1788137237 30° C 83% 1010 hPa 0 mm - 4 W/m² -
1788136934 30.56° C 82% 1010.4 hPa 0 mm - 6 W/m² -
1788136629 31.11° C 81% 1010.3 hPa 0 mm - 8 W/m² -
1788136325 31.11° C 80% 1010.3 hPa 0 mm - 10 W/m² -
1788136024 31.11° C 79% 1010.3 hPa 0 mm - 12 W/m² -
1788135718 31.11° C 79% 1010 hPa 0 mm - 14 W/m² -
1788135415 31.67° C 78% 1010.3 hPa 0 mm - 16 W/m² -

* Rain latest hour (hover to see other rain measurements)
** Current wind speed in m/s (hover to see current wind gust speed)